Date,TemperatureHighF,TemperatureAvgF,TemperatureLowF,DewpointHighF,DewpointAvgF,DewpointLowF,HumidityHigh,HumidityAvg,HumidityLow,PressureMaxIn,PressureMinIn,WindSpeedMaxMPH,WindSpeedAvgMPH,GustSpeedMaxMPH,PrecipitationSumIn
2013-1-1,22.1,20.1,17.4,19.0,16.9,14.0,88,87,86,30.67,30.48,2,0,3,0.00
2013-1-2,23.8,20.9,18.0,20.0,17.1,14.0,88,85,78,30.66,30.52,4,0,6,0.00
2013-1-3,27.7,19.8,15.2,20.0,15.8,12.0,88,84,73,30.52,30.38,3,1,5,0.00
2013-1-4,27.1,23.3,18.6,22.0,19.4,15.0,87,85,81,30.47,30.42,6,0,6,0.00
2013-1-5,33.1,27.4,23.6,27.0,23.7,21.0,89,86,78,30.45,30.22,11,1,17,0.01
2013-1-6,31.8,28.5,25.4,28.0,24.8,22.0,89,86,80,30.22,30.10,16,3,23,0.00
2013-1-7,36.6,33.7,30.5,33.0,30.2,27.0,90,87,80,30.09,29.84,30,10,48,0.01
2013-1-8,43.9,36.5,32.3,37.0,31.2,28.0,90,81,73,30.13,29.84,43,12,51,0.05
2013-1-9,48.3,41.1,31.0,35.0,31.4,26.0,83,69,46,29.84,29.58,47,23,57,0.02
2013-1-10,30.8,26.7,23.8,26.0,22.6,21.0,88,84,77,29.90,29.73,12,2,17,0.00
2013-1-11,28.6,23.8,16.6,22.0,13.7,10.0,88,66,49,30.27,29.91,12,3,17,0.00
2013-1-12,20.0,17.5,14.4,17.0,13.6,11.0,87,84,79,30.40,30.26,5,1,8,0.00
2013-1-13,21.6,16.5,13.7,15.0,11.8,10.0,87,81,71,30.51,30.40,3,0,4,0.00
2013-1-14,22.2,19.3,16.0,18.0,15.2,11.0,86,84,79,30.54,30.40,3,0,6,0.00
2013-1-15,32.7,25.4,20.7,27.0,21.2,16.0,88,84,78,30.66,30.52,4,0,5,0.00
2013-1-16,32.9,26.1,19.4,27.0,22.2,16.0,89,85,75,30.63,30.57,5,1,6,0.04
2013-1-17,26.9,20.8,15.7,23.0,17.4,12.0,89,86,84,30.61,30.44,2,0,5,0.00
2013-1-18,28.6,23.6,17.0,23.0,18.5,14.0,88,81,73,30.43,30.32,6,0,7,0.00
2013-1-19,36.0,26.3,20.6,26.0,20.5,17.0,88,79,67,30.49,30.40,3,0,5,0.02
2013-1-20,34.9,26.6,21.9,25.0,21.1,19.0,88,80,68,30.55,30.43,4,0,6,0.02
2013-1-21,30.1,21.5,14.3,25.0,17.7,11.0,88,85,76,30.44,30.33,3,0,4,0.00
2013-1-22,24.3,19.3,12.9,21.0,15.8,9.0,88,86,84,30.38,30.24,2,0,5,0.00
2013-1-23,37.6,27.2,20.8,34.0,23.9,18.0,90,87,81,30.24,29.98,24,2,39,0.13
2013-1-24,34.5,27.6,22.8,32.0,24.3,20.0,90,87,81,30.31,30.12,12,1,14,0.01
2013-1-25,42.3,38.3,31.2,37.0,34.7,28.0,90,87,79,30.19,29.90,17,4,27,0.40
2013-1-26,38.3,33.1,29.0,35.0,29.6,26.0,90,86,79,29.96,29.84,14,4,20,0.00
2013-1-27,31.1,28.3,25.7,28.0,25.1,23.0,90,88,83,30.02,29.95,11,2,17,0.00
2013-1-28,30.0,28.3,25.6,27.0,25.4,23.0,89,88,85,29.97,29.88,10,4,17,0.00
2013-1-29,34.3,30.8,27.2,31.0,26.2,23.0,90,83,64,30.22,29.90,9,2,21,0.05
2013-1-30,41.1,35.7,32.6,36.0,32.0,30.0,89,86,80,30.25,30.14,15,7,21,0.10
2013-1-31,41.7,38.0,34.4,36.0,33.7,31.0,89,84,76,30.27,30.16,20,6,25,0.02
2013-2-1,42.8,35.2,30.8,34.0,30.3,28.0,90,82,67,30.45,30.19,13,1,14,0.00
2013-2-2,35.6,29.9,25.8,33.0,26.6,23.0,90,87,77,30.50,30.28,4,0,8,0.00
2013-2-3,38.1,32.4,24.1,33.0,28.9,21.0,90,87,81,30.28,30.13,5,1,11,0.01
2013-2-4,42.7,37.0,32.6,34.0,31.2,30.0,89,80,66,30.14,29.97,12,3,20,0.00
2013-2-5,43.1,37.9,32.5,34.0,31.6,29.0,88,78,60,29.97,29.82,22,7,31,0.00
2013-2-6,40.7,36.9,33.4,33.0,29.8,27.0,85,76,62,30.06,29.91,24,7,30,0.00
2013-2-7,38.9,35.7,31.4,33.0,28.9,24.0,89,77,58,30.03,29.90,7,2,12,0.03
2013-2-8,34.1,31.8,30.4,30.0,28.4,26.0,89,87,82,30.14,30.03,8,2,10,0.00
2013-2-9,32.0,29.0,26.5,28.0,25.3,23.0,89,86,81,30.22,30.07,5,1,8,0.00
2013-2-10,31.2,27.8,23.3,27.0,24.4,20.0,89,86,82,30.32,30.22,3,0,3,0.00
2013-2-11,37.7,32.3,27.3,29.0,26.9,23.0,85,80,68,30.26,30.21,6,1,13,0.02
2013-2-12,40.4,35.3,29.0,34.0,30.1,26.0,88,81,72,30.31,30.17,32,7,35,0.05
2013-2-13,45.2,38.3,33.9,33.0,28.7,22.0,86,69,53,30.34,30.14,17,7,27,0.00
2013-2-14,41.1,35.0,29.2,31.0,26.6,22.0,81,72,62,30.55,30.34,6,1,9,0.00
2013-2-15,48.2,38.6,31.9,34.0,30.5,27.0,84,73,56,30.55,30.26,4,1,6,0.00
2013-2-16,46.1,38.2,32.0,37.0,31.9,27.0,85,78,66,30.25,29.90,16,6,26,0.01
2013-2-17,42.7,35.1,29.4,30.0,25.1,20.0,88,68,48,30.12,29.94,15,6,18,0.01
2013-2-18,39.6,35.6,29.8,24.0,22.2,20.0,71,59,47,30.11,29.78,8,2,17,0.00
2013-2-19,34.9,31.3,28.4,30.0,27.2,22.0,89,85,62,29.89,29.71,3,0,6,0.03
2013-2-20,35.7,31.2,29.1,28.0,24.8,19.0,89,77,64,30.01,29.89,9,2,14,0.04
2013-2-21,33.9,31.2,28.1,29.0,25.8,20.0,88,80,70,30.03,29.99,21,7,29,0.00
2013-2-22,35.9,33.0,30.6,32.0,28.7,26.0,87,84,80,30.00,29.63,33,16,45,0.01
2013-2-23,40.5,32.3,27.1,28.0,23.6,21.0,82,71,51,30.23,29.70,20,8,28,0.00
2013-2-24,36.1,31.6,25.8,28.0,24.1,21.0,83,74,65,30.34,30.07,15,5,24,0.00
2013-2-25,35.9,33.5,31.4,30.0,27.1,24.0,88,78,63,30.06,29.89,23,12,36,0.04
2013-2-27,42.9,39.7,34.7,30.0,28.3,27.0,76,64,57,30.28,30.24,19,5,19,0.00
2013-2-28,40.9,37.1,33.3,38.0,32.6,29.0,89,84,72,30.36,30.24,8,2,18,0.11
2013-3-1,50.0,46.4,40.5,42.0,40.1,38.0,90,79,63,30.38,30.25,22,12,38,0.00
2013-3-2,53.4,48.5,42.1,39.0,37.4,35.0,79,66,50,30.25,29.83,27,8,40,0.00
2013-3-3,42.7,36.1,29.7,36.0,19.1,15.0,79,51,36,30.16,29.82,16,5,24,0.00
2013-3-4,43.7,34.6,27.7,24.0,16.3,13.0,73,49,30,30.29,30.08,8,2,11,0.00
2013-3-5,38.9,33.7,29.1,27.0,19.5,15.0,75,57,42,30.08,29.83,14,2,14,0.00
2013-3-6,45.1,36.3,32.0,36.0,30.3,24.0,87,79,65,29.84,29.59,22,5,27,0.14
2013-3-7,41.0,35.4,32.1,32.0,29.1,27.0,88,78,60,30.07,29.84,20,7,33,0.04
2013-3-8,41.3,32.6,24.0,34.0,27.9,21.0,89,83,70,30.15,30.04,4,1,6,0.00
2013-3-9,49.1,39.9,32.3,31.0,28.6,24.0,81,65,39,30.40,30.15,8,2,10,0.00
2013-3-10,43.0,38.2,34.1,32.0,29.0,25.0,85,70,52,30.39,30.23,15,4,19,0.03
2013-3-11,48.1,39.7,32.4,32.0,25.4,16.0,84,60,31,30.32,30.22,13,2,18,0.00
2013-3-12,51.4,44.6,34.1,42.0,35.6,21.0,88,71,47,30.21,30.03,22,9,31,0.03
2013-3-13,53.7,49.2,44.7,42.0,39.0,35.0,82,68,60,30.15,30.04,21,6,32,0.02
2013-3-14,59.2,52.3,45.4,43.0,38.5,31.0,76,60,43,30.09,29.92,19,5,31,0.00
2013-3-15,53.3,47.2,42.4,40.0,36.3,31.0,80,66,54,30.10,29.96,19,10,30,0.00
2013-3-16,48.3,42.4,32.3,37.0,34.0,27.0,85,73,58,30.01,29.65,21,10,36,0.03
2013-3-17,43.7,33.9,27.7,27.0,21.0,13.0,81,62,38,30.02,29.66,22,10,31,0.00
2013-3-18,43.7,32.1,26.9,28.0,23.0,17.0,79,70,39,30.19,29.99,24,7,29,0.00
2013-3-19,46.5,37.6,26.0,28.0,19.4,11.0,72,50,25,30.28,29.84,15,2,21,0.01
2013-3-20,51.0,41.8,33.2,42.0,34.9,28.0,86,77,61,29.84,29.44,31,15,45,0.42
2013-3-21,41.7,31.5,27.1,28.0,22.3,18.0,84,70,41,30.03,29.75,25,10,36,0.00
2013-3-22,40.6,30.5,24.1,25.0,20.1,15.0,86,67,38,30.27,30.03,8,2,14,0.00
2013-3-23,39.1,30.1,23.1,23.0,18.7,14.0,80,63,42,30.37,30.27,9,1,12,0.00
2013-3-24,43.2,33.4,23.7,24.0,15.3,8.0,76,51,25,30.38,30.21,6,1,10,0.00
2013-3-25,48.5,37.4,26.7,24.0,18.5,11.0,63,47,35,30.21,30.00,5,1,7,0.00
2013-3-26,55.7,43.0,30.7,30.0,25.1,20.0,69,50,36,30.01,29.93,3,1,7,0.00
2013-3-27,53.1,45.0,37.3,37.0,32.4,26.0,72,62,49,29.97,29.92,4,1,8,0.00
2013-3-28,57.4,47.6,37.9,41.0,36.6,34.0,87,67,46,30.06,29.96,6,1,9,0.00
2013-3-29,58.8,50.6,45.3,40.0,34.2,29.0,75,55,36,30.16,30.06,8,3,16,0.00
2013-3-30,62.5,52.3,42.7,39.0,33.1,29.0,69,49,35,30.23,30.07,4,1,8,0.00
2013-3-31,65.5,54.4,41.3,39.0,32.8,30.0,73,46,28,30.06,29.86,6,1,11,0.00
2013-4-1,68.1,57.7,48.2,38.0,32.4,29.0,53,39,25,29.90,29.85,9,2,19,0.00
2013-4-2,61.4,53.4,45.3,43.0,39.0,35.0,78,59,44,30.00,29.91,16,7,26,0.00
2013-4-3,62.6,52.3,42.7,40.0,36.3,32.0,81,56,35,30.06,29.95,19,4,28,0.00
2013-4-4,54.7,48.8,41.3,46.0,39.1,32.0,85,70,49,29.96,29.67,25,5,30,0.08
2013-4-5,54.2,47.9,44.3,44.0,39.7,35.0,83,74,60,29.84,29.74,35,15,41,0.11
2013-4-6,51.8,46.4,43.4,39.0,35.6,29.0,82,67,43,29.82,29.74,30,14,39,0.04
2013-4-7,46.4,40.5,36.9,40.0,33.5,29.0,84,77,58,29.77,29.52,25,10,34,0.14
2013-4-8,44.9,37.7,32.7,34.0,29.1,24.0,88,72,51,30.23,29.75,8,2,16,0.06
2013-4-9,51.6,41.3,30.4,31.0,27.1,23.0,79,59,40,30.34,30.20,9,2,14,0.00
2013-4-10,54.8,47.5,44.0,46.0,33.6,29.0,83,60,47,30.20,29.76,26,7,38,0.03
2013-4-11,51.2,42.6,35.2,33.0,29.0,24.0,78,60,37,30.07,29.97,20,6,24,0.00
2013-4-12,52.2,40.5,33.9,34.0,29.3,23.0,86,67,36,30.06,29.57,21,6,29,0.20
2013-4-13,47.1,38.5,31.8,34.0,23.0,18.0,85,56,35,29.80,29.53,23,7,33,0.00
2013-4-14,43.7,35.6,29.3,29.0,26.1,20.0,85,70,50,29.93,29.80,18,3,27,0.00
2013-4-15,43.1,35.5,28.3,27.0,17.0,14.0,81,48,34,30.12,29.88,14,6,20,0.00
2013-4-16,43.5,35.2,28.5,15.0,11.9,9.0,48,39,27,30.36,30.13,15,5,20,0.00
2013-4-17,51.6,39.4,28.3,18.0,14.0,8.0,51,37,23,30.43,30.30,11,2,16,0.00
2013-4-18,51.3,44.3,35.6,34.0,24.9,12.0,67,47,31,30.31,30.13,18,7,28,0.00
2013-4-19,49.8,45.3,41.8,44.0,40.3,35.0,88,82,70,30.13,29.87,21,10,31,0.25
2013-4-20,55.9,46.8,39.5,41.0,33.8,28.0,79,62,39,30.06,29.91,25,11,33,0.00
2013-4-21,46.4,39.3,33.2,36.0,31.0,24.0,88,73,53,30.27,30.01,13,4,14,0.37
2013-4-22,50.0,39.0,28.2,29.0,19.1,13.0,82,49,26,30.49,30.27,9,3,14,0.00
2013-4-23,55.0,45.6,38.3,27.0,19.6,12.0,45,36,29,30.36,30.19,13,3,16,0.00
2013-4-24,59.5,49.9,39.7,31.0,25.3,21.0,55,39,29,30.25,29.92,14,4,19,0.00
2013-4-25,67.9,56.2,43.8,36.0,28.6,21.0,51,36,26,29.97,29.88,13,3,18,0.00
2013-4-26,69.9,60.6,49.1,42.0,34.4,28.0,52,38,27,30.09,29.98,16,5,21,0.00
2013-4-27,61.4,56.2,48.7,34.0,29.1,22.0,57,36,27,30.01,29.87,26,14,38,0.00
2013-4-28,57.0,50.2,44.5,37.0,32.1,25.0,68,52,36,30.01,29.79,24,11,30,0.00
2013-4-29,53.2,45.2,38.3,36.0,23.5,14.0,78,46,24,29.90,29.64,27,8,37,0.02
2013-4-30,47.7,39.9,32.4,26.0,20.1,16.0,67,46,35,30.32,29.90,9,3,17,0.00
2013-5-1,55.9,44.6,31.9,28.0,21.3,17.0,67,42,25,30.58,30.33,7,1,11,0.00
2013-5-2,67.4,53.5,39.5,31.0,23.4,16.0,58,33,20,30.58,30.20,12,2,13,0.00
2013-5-3,65.8,58.5,49.8,37.0,31.6,20.0,52,37,25,30.20,30.10,8,3,13,0.00
2013-5-4,67.8,59.1,50.5,35.0,30.8,25.0,52,36,24,30.19,30.01,12,5,20,0.00
2013-5-5,73.3,62.7,49.7,35.0,30.1,26.0,43,30,21,30.01,29.78,12,3,15,0.00
2013-5-6,79.6,67.9,55.2,41.0,32.1,26.0,43,27,18,29.81,29.63,7,2,11,0.00
2013-5-7,81.1,70.2,56.3,44.0,35.1,27.0,48,28,21,29.76,29.66,11,2,14,0.00
2013-5-8,83.0,71.5,58.0,47.0,40.2,33.0,42,33,25,29.87,29.76,5,2,15,0.00
2013-5-9,83.6,72.3,58.8,50.0,40.7,34.0,58,34,18,29.95,29.86,6,2,9,0.00
2013-5-10,86.0,72.9,58.7,49.0,40.4,34.0,55,32,20,30.04,29.94,6,2,12,0.00
2013-5-11,83.1,73.9,63.5,48.0,40.3,30.0,49,30,22,29.99,29.87,9,2,17,0.00
2013-5-12,78.3,70.8,62.3,49.0,44.4,36.0,54,39,27,29.88,29.81,17,5,22,0.00
2013-5-13,63.6,55.4,46.4,50.0,43.9,35.0,87,67,48,29.99,29.82,32,9,38,0.67
2013-5-14,59.9,49.9,41.2,36.0,29.6,22.0,66,47,29,30.11,30.00,12,3,19,0.00
2013-5-15,62.7,53.3,42.9,38.0,31.5,22.0,74,44,33,30.04,29.88,7,1,8,0.00
2013-5-16,60.4,52.9,46.1,46.0,42.0,35.0,87,68,49,29.89,29.81,4,1,7,0.02
2013-5-17,67.0,55.0,44.0,47.0,42.6,40.0,85,65,38,29.88,29.78,6,2,10,0.00
2013-5-18,56.2,50.8,44.6,44.0,40.4,37.0,85,68,53,30.08,29.88,17,4,17,0.11
2013-5-19,66.0,54.2,46.1,45.0,42.0,37.0,79,64,45,30.20,30.09,9,2,15,0.00
2013-5-20,70.9,60.0,49.6,48.0,42.7,40.0,75,55,36,30.20,29.80,5,1,7,0.00
2013-5-21,73.8,56.9,41.2,45.0,39.4,37.0,89,56,28,29.80,29.47,22,5,29,0.26
2013-5-22,46.9,39.9,35.2,38.0,34.5,31.0,89,81,66,30.00,29.68,14,4,19,0.05
2013-5-23,57.5,45.7,33.9,39.0,33.1,28.0,89,65,36,30.02,29.92,7,1,9,0.01
2013-5-24,51.5,45.1,39.4,40.0,36.0,30.0,85,71,52,29.99,29.89,12,4,16,0.00
2013-5-25,60.0,50.8,42.3,41.0,37.5,34.0,79,62,39,30.00,29.94,8,2,13,0.00
2013-5-26,68.4,55.8,42.8,44.0,38.5,35.0,77,55,31,29.95,29.82,12,2,18,0.00
2013-5-27,63.4,54.1,48.1,47.0,42.4,38.0,88,66,40,29.88,29.71,12,3,17,0.08
2013-5-28,61.1,52.4,46.9,49.0,44.9,38.0,89,76,54,29.79,29.70,9,3,14,0.05
2013-5-29,60.2,51.8,47.1,47.0,42.1,37.0,83,70,55,29.80,29.62,17,4,24,0.00
2013-5-30,58.2,50.5,43.2,44.0,38.4,33.0,82,65,48,30.07,29.80,18,9,25,0.01
2013-5-31,61.6,50.7,43.2,41.0,36.3,32.0,74,59,46,30.22,30.08,9,3,15,0.00
2013-6-5,77.3,73.5,68.7,48.0,44.8,42.0,40,36,31,29.89,29.83,11,6,15,0.00
2013-6-6,81.5,72.4,63.4,53.0,46.7,41.0,54,40,33,29.87,29.76,7,3,13,0.00
2013-6-7,77.0,69.6,62.1,50.0,41.8,32.0,50,37,25,29.78,29.69,19,8,27,0.00
2013-6-8,75.2,64.2,48.4,41.0,36.1,31.0,64,37,24,29.93,29.78,13,6,22,0.00
2013-6-9,73.2,64.6,55.2,39.0,33.8,23.0,53,33,21,29.81,29.73,20,8,29,0.00
2013-6-10,74.2,64.3,51.5,41.0,33.7,24.0,52,33,23,29.77,29.64,6,2,12,0.00
2013-6-11,65.8,59.7,52.4,42.0,34.0,26.0,58,39,28,29.92,29.67,15,5,21,0.00
2013-6-12,65.0,56.1,47.1,39.0,34.6,30.0,63,45,34,29.99,29.91,11,4,15,0.00
2013-6-13,64.9,55.7,47.7,40.0,35.1,29.0,65,47,32,30.00,29.94,12,3,17,0.00
2013-6-14,65.1,55.8,47.3,41.0,36.6,31.0,71,50,34,30.08,29.99,16,6,24,0.00
2013-6-15,78.4,64.5,49.0,45.0,37.2,32.0,64,39,22,30.00,29.87,6,2,9,0.00
2013-6-16,81.1,70.5,58.4,43.0,37.5,33.0,47,31,21,29.92,29.81,6,2,11,0.00
2013-6-17,82.5,70.3,58.9,50.0,45.1,33.0,64,42,23,29.87,29.69,10,2,14,0.01
2013-6-18,65.2,59.3,54.2,54.0,48.8,44.0,87,69,51,29.80,29.71,9,2,10,0.06
2013-6-19,53.5,50.3,47.4,48.0,45.6,43.0,88,84,74,29.81,29.69,16,4,21,0.24
2013-6-20,48.4,46.2,44.4,45.0,42.5,41.0,89,87,82,30.04,29.73,23,10,30,0.64
2013-6-21,62.1,51.8,45.1,48.0,44.6,42.0,89,78,55,30.10,30.03,6,1,11,0.12
2013-6-22,67.7,58.3,51.0,51.0,46.2,44.0,78,65,46,30.06,29.87,4,1,8,0.00
2013-6-23,74.1,62.4,49.6,51.0,46.0,42.0,80,57,36,29.87,29.55,7,1,11,0.00
2013-6-24,64.2,57.7,52.1,56.0,50.9,44.0,89,79,48,29.66,29.51,8,2,14,0.43
2013-6-25,65.1,58.0,50.8,55.0,49.8,45.0,89,74,63,29.81,29.66,12,3,18,0.18
2013-6-26,71.0,61.9,55.5,55.0,51.3,46.0,80,69,54,30.02,29.81,12,4,20,0.00
2013-6-27,79.5,67.4,57.1,61.0,55.4,50.0,81,66,47,30.09,30.02,6,2,9,0.00
2013-6-28,86.0,72.5,58.4,61.0,56.9,53.0,82,60,38,30.12,29.96,5,1,7,0.00
2013-6-29,77.2,70.4,62.9,60.0,56.1,48.0,79,61,36,30.01,29.85,17,4,22,0.09
2013-6-30,90.1,75.7,60.9,62.0,55.8,49.0,83,53,27,29.96,29.86,4,1,7,0.00
2013-7-1,94.2,82.5,68.1,64.0,56.6,50.0,61,43,28,29.87,29.75,7,2,12,0.00
2013-7-2,92.5,83.0,71.4,66.0,58.8,52.0,67,45,32,29.84,29.71,10,3,16,0.00
2013-7-3,87.3,79.1,70.6,56.0,47.7,35.0,46,34,22,29.82,29.72,21,6,29,0.00
2013-7-4,79.5,72.5,63.2,48.0,41.7,36.0,50,33,25,29.78,29.67,19,6,22,0.00
2013-7-5,78.3,68.7,57.2,48.0,41.8,35.0,53,39,28,29.76,29.66,9,4,25,0.00
2013-7-6,81.0,69.3,60.1,50.0,42.9,35.0,56,40,27,29.79,29.69,7,2,10,0.00
2013-7-7,86.0,73.6,60.7,48.0,42.0,37.0,48,33,23,29.76,29.66,6,2,9,0.00
2013-7-8,80.9,69.0,60.2,51.0,45.2,39.0,59,43,28,29.95,29.68,8,2,13,0.00
2013-7-9,86.0,72.4,56.9,53.0,45.3,39.0,69,40,25,30.02,29.86,6,1,10,0.00
2013-7-10,88.4,76.8,63.9,52.0,43.8,37.0,52,32,22,29.87,29.62,16,4,23,0.00
2013-7-11,79.4,69.8,61.4,44.0,34.5,20.0,42,29,14,29.73,29.62,27,8,29,0.00
2013-7-12,78.0,65.3,57.1,37.0,29.6,18.0,40,27,17,29.84,29.71,9,2,15,0.00
2013-7-13,76.9,66.1,55.7,40.0,36.1,32.0,48,34,24,30.03,29.84,6,2,13,0.00
2013-7-14,82.7,70.0,54.6,47.0,38.4,32.0,57,33,20,30.01,29.79,8,2,13,0.00
2013-7-15,82.2,71.1,60.4,42.0,34.4,27.0,41,27,17,29.85,29.79,6,2,11,0.00
2013-7-16,81.8,72.5,61.8,52.0,44.1,33.0,48,37,29,29.84,29.71,16,7,25,0.01
2013-7-17,90.0,78.0,66.2,58.0,50.9,43.0,70,40,25,29.91,29.70,14,3,27,0.02
2013-7-18,89.5,77.1,63.8,52.0,43.5,37.0,57,33,16,29.99,29.88,7,1,11,0.00
2013-7-19,91.4,79.3,63.7,51.0,42.3,37.0,49,28,17,29.91,29.77,7,1,10,0.00
2013-7-20,92.2,80.1,69.2,50.0,37.0,20.0,43,23,11,29.77,29.64,14,3,19,0.00
2013-7-21,90.7,78.3,63.4,43.0,37.1,29.0,37,23,16,29.70,29.61,16,4,19,0.00
2013-7-22,90.4,78.2,64.3,47.0,41.2,35.0,44,28,19,29.76,29.62,15,4,21,0.00
2013-7-23,94.7,81.6,70.6,47.0,39.5,33.0,35,23,14,29.86,29.75,7,2,13,0.00
2013-7-24,95.2,81.8,67.7,48.0,39.5,32.0,40,23,15,29.82,29.74,5,1,13,0.00
2013-7-25,94.9,82.5,69.2,47.0,37.5,25.0,36,21,13,29.86,29.77,9,2,10,0.00
2013-7-26,94.5,82.1,72.2,43.0,33.1,23.0,30,18,10,29.89,29.76,12,3,15,0.00
2013-7-27,88.0,75.2,64.5,39.0,33.1,28.0,34,22,12,29.83,29.69,16,4,25,0.00
2013-7-28,84.0,72.0,58.8,43.0,37.4,27.0,47,29,19,29.75,29.67,9,2,13,0.00
2013-7-29,84.9,71.7,59.2,44.0,38.8,34.0,46,31,21,29.80,29.71,6,1,12,0.00
2013-7-30,87.5,74.6,59.9,49.0,40.1,35.0,49,30,18,29.94,29.80,5,2,10,0.00
2013-7-31,82.9,74.2,61.1,46.0,40.4,35.0,46,30,20,29.96,29.81,9,2,15,0.00
2013-8-1,75.6,66.4,56.3,52.0,46.3,39.0,83,51,29,29.82,29.74,9,3,14,0.17
2013-8-2,59.4,55.8,53.7,54.0,51.5,50.0,89,85,78,30.02,29.80,13,4,17,0.95
2013-8-3,74.8,62.3,54.1,57.0,53.4,51.0,90,74,50,30.06,29.96,6,1,7,0.03
2013-8-4,81.7,69.0,56.1,57.0,52.5,48.0,83,58,32,29.97,29.85,9,2,17,0.00
2013-8-5,85.6,70.7,56.2,58.0,50.0,42.0,82,52,28,29.87,29.77,6,1,12,0.00
2013-8-6,88.3,75.2,62.2,58.0,48.2,42.0,66,41,24,29.86,29.74,4,1,7,0.00
2013-8-7,89.5,77.5,64.8,53.0,43.2,35.0,55,32,17,29.80,29.71,6,2,13,0.00
2013-8-8,88.2,76.7,63.4,53.0,44.1,33.0,51,33,19,29.81,29.72,5,2,7,0.00
2013-8-9,88.7,78.5,67.8,57.0,51.3,43.0,69,40,28,29.75,29.65,11,4,25,0.08
2013-8-10,87.9,76.0,64.4,58.0,50.9,45.0,73,43,25,29.80,29.70,15,3,26,0.05
2013-8-11,87.6,76.2,66.4,57.0,51.2,44.0,53,42,32,29.84,29.74,7,2,12,0.00
2013-8-12,86.7,76.3,67.4,56.0,51.2,45.0,60,43,29,29.85,29.77,6,1,8,0.00
2013-8-13,85.8,76.7,68.6,54.0,45.8,42.0,52,34,22,29.92,29.82,7,2,8,0.00
2013-8-14,89.4,76.7,63.0,57.0,49.2,44.0,65,40,22,29.83,29.70,13,2,13,0.00
2013-8-15,90.7,78.1,66.4,53.0,46.2,41.0,54,33,22,29.80,29.71,6,2,9,0.00
2013-8-16,86.3,76.1,68.7,51.0,46.1,42.0,47,35,25,29.84,29.77,5,2,10,0.00
2013-8-17,85.0,74.3,65.8,52.0,48.7,45.0,58,41,28,29.88,29.77,19,5,22,0.00
2013-8-18,83.8,72.4,60.1,48.0,43.8,40.0,55,37,25,29.94,29.84,10,4,18,0.00
2013-8-19,83.1,73.0,63.5,46.0,43.5,40.0,47,35,25,29.89,29.79,19,6,20,0.00
2013-8-20,82.0,70.5,56.8,41.0,36.1,24.0,52,30,17,29.93,29.81,11,2,15,0.00
2013-8-21,70.1,63.1,58.2,39.0,31.5,24.0,47,32,18,29.96,29.90,6,2,13,0.00
2013-8-22,87.6,81.5,73.9,46.0,43.6,38.0,35,26,22,29.80,29.67,25,5,34,0.00
2013-8-23,79.9,72.7,68.6,51.0,47.4,44.0,47,41,33,29.70,29.63,13,4,20,0.00
2013-8-24,83.0,71.6,60.7,50.0,47.0,42.0,63,43,28,29.75,29.61,8,2,11,0.03
2013-8-25,82.4,69.2,58.6,56.0,48.8,41.0,75,50,33,29.80,29.65,15,2,25,0.04
2013-8-26,79.6,66.9,55.3,52.0,47.5,42.0,84,53,29,29.87,29.73,11,2,19,0.00
2013-8-27,81.9,71.3,61.2,50.0,45.1,42.0,55,40,29,29.87,29.69,7,2,11,0.00
2013-8-28,84.9,73.0,60.7,51.0,45.8,41.0,64,40,25,29.77,29.64,14,3,21,0.00
2013-8-29,82.5,70.1,60.9,57.0,47.5,40.0,71,46,29,29.90,29.73,14,3,27,0.04
2013-8-30,79.2,69.2,59.3,53.0,46.4,37.0,76,47,27,30.02,29.89,18,5,28,0.13
2013-8-31,82.2,69.9,54.6,48.0,40.4,36.0,58,36,23,29.98,29.80,8,2,12,0.00
2013-9-1,90.6,74.4,58.0,49.0,43.6,39.0,55,35,19,29.80,29.66,9,2,15,0.00
2013-9-2,77.3,69.1,64.9,63.0,51.3,40.0,77,56,27,29.79,29.65,6,2,15,0.08
2013-9-3,81.5,72.3,63.5,58.0,54.1,51.0,71,54,39,29.88,29.79,13,2,17,0.00
2013-9-4,86.1,74.5,64.1,59.0,54.7,51.0,81,52,35,29.90,29.79,16,2,33,0.18
2013-9-5,75.7,68.7,62.7,62.0,59.2,56.0,86,72,60,29.88,29.71,12,3,16,0.28
2013-9-6,65.6,59.2,54.0,59.0,50.6,47.0,87,74,57,30.04,29.77,14,3,20,0.34
2013-9-7,69.9,59.3,53.4,53.0,50.4,49.0,88,73,50,30.05,29.96,6,1,11,0.00
2013-9-8,69.4,58.7,50.9,54.0,50.3,48.0,90,76,52,30.01,29.92,8,2,13,0.01
2013-9-9,80.4,69.6,59.5,54.0,49.5,45.0,67,51,34,29.94,29.84,8,2,12,0.00
2013-9-10,82.4,71.5,58.2,57.0,50.0,45.0,76,49,32,29.92,29.85,6,2,11,0.00
2013-9-11,87.9,76.5,66.6,54.0,50.2,45.0,55,41,27,29.94,29.85,10,4,14,0.00
2013-9-12,89.2,78.3,69.9,52.0,47.4,44.0,41,34,26,29.86,29.71,8,2,10,0.00
2013-9-13,88.5,76.4,64.2,54.0,47.8,43.0,55,38,26,29.72,29.60,4,1,8,0.00
2013-9-14,87.7,78.3,67.4,52.0,46.0,40.0,51,33,23,29.75,29.64,8,3,15,0.00
2013-9-15,86.3,75.9,60.5,55.0,46.3,41.0,81,36,26,29.69,29.48,26,3,34,0.07
2013-9-16,69.4,60.9,55.7,55.0,50.1,43.0,84,69,46,29.77,29.59,12,5,20,0.00
2013-9-17,67.5,57.3,50.3,50.0,47.2,45.0,88,70,47,29.75,29.59,17,3,23,0.28
2013-9-18,62.6,53.2,47.3,47.0,42.6,37.0,87,69,43,30.03,29.67,19,7,25,0.07
2013-9-19,68.5,58.3,49.0,46.0,38.3,34.0,76,49,30,30.08,29.87,11,3,18,0.00
2013-9-20,77.4,62.1,47.1,46.0,40.3,33.0,80,48,23,29.86,29.45,8,2,11,0.00
2013-9-21,63.7,58.4,54.1,45.0,40.9,36.0,72,53,42,29.61,29.46,19,6,25,0.00
2013-9-22,58.9,52.7,48.7,45.0,42.1,37.0,85,68,47,29.67,29.58,22,9,33,0.08
2013-9-23,57.2,51.6,46.0,45.0,41.5,38.0,85,70,51,29.89,29.67,16,9,28,0.00
2013-9-24,57.6,50.6,46.6,45.0,41.0,32.0,87,71,49,29.87,29.71,12,5,18,0.08
2013-9-25,49.9,45.9,43.2,44.0,40.6,38.0,87,82,73,29.85,29.73,7,1,13,0.04
2013-9-26,57.6,50.2,44.6,39.0,33.0,25.0,80,55,34,30.00,29.85,12,4,18,0.00
2013-9-27,51.0,46.4,43.4,41.0,37.2,27.0,85,71,42,29.99,29.89,25,7,28,0.01
2013-9-28,57.7,51.9,46.1,48.0,45.1,41.0,86,78,61,29.89,29.39,42,20,54,0.09
2013-9-29,53.0,47.2,43.3,47.0,40.7,38.0,85,78,69,29.63,29.38,33,18,48,0.14
2013-9-30,53.8,47.3,41.1,44.0,37.8,35.0,84,70,55,29.86,29.33,37,17,50,0.00
2013-10-1,50.8,44.7,40.5,40.0,36.2,34.0,83,73,55,30.10,29.87,23,10,29,0.02
2013-10-2,49.3,43.4,38.6,36.0,34.6,33.0,83,72,57,30.13,30.01,13,3,24,0.00
2013-10-3,55.2,46.1,38.3,35.0,30.8,27.0,82,57,36,30.38,30.02,10,3,15,0.00
2013-10-4,56.9,46.4,36.8,34.0,27.7,25.0,74,50,30,30.50,30.38,5,1,11,0.00
2013-10-5,62.9,50.4,40.6,36.0,28.1,24.0,66,44,28,30.41,30.23,4,1,7,0.00
2013-10-6,65.1,53.1,40.0,41.0,33.8,26.0,76,50,30,30.23,29.89,6,1,10,0.00
2013-10-7,58.7,53.2,43.2,41.0,32.7,26.0,78,47,30,29.90,29.74,23,12,30,0.10
2013-10-8,45.3,41.2,37.0,39.0,35.8,33.0,88,81,67,30.01,29.83,24,8,34,0.06
2013-10-9,54.4,43.0,35.5,42.0,36.9,32.0,89,79,56,30.06,29.89,8,2,12,0.01
2013-10-10,49.8,44.9,40.7,40.0,36.8,35.0,85,74,62,29.97,29.84,11,2,15,0.00
2013-10-11,51.6,44.4,36.9,39.0,32.6,28.0,87,65,41,30.10,29.97,3,1,5,0.00
2013-10-12,52.8,45.2,38.7,36.0,32.6,27.0,82,63,45,30.11,30.00,10,2,11,0.00
2013-10-13,52.6,44.7,37.0,36.0,29.7,25.0,77,57,35,30.26,30.11,6,1,9,0.00
2013-10-14,54.1,44.8,36.1,34.0,27.5,23.0,75,53,34,30.39,30.26,4,1,8,0.00
2013-10-15,54.6,44.2,33.1,36.0,28.3,24.0,80,55,39,30.39,30.16,3,1,7,0.00
2013-10-16,56.3,47.7,39.4,34.0,30.7,26.0,73,53,42,30.16,30.10,6,1,6,0.00
2013-10-17,54.5,45.1,35.0,40.0,35.7,31.0,86,70,57,30.25,30.13,4,1,5,0.00
2013-10-18,57.1,47.4,38.8,39.0,34.7,32.0,81,63,45,30.28,30.17,5,1,6,0.00
2013-10-19,59.1,49.1,41.7,38.0,34.0,31.0,76,57,43,30.16,30.05,6,1,7,0.00
2013-10-20,61.8,50.4,39.5,39.0,35.9,33.0,79,59,42,30.13,30.07,5,1,8,0.00
2013-10-21,61.9,52.0,41.2,43.0,38.6,36.0,82,62,46,30.18,30.12,4,1,5,0.00
2013-10-22,60.7,49.5,38.1,46.0,40.4,35.0,89,72,51,30.18,30.08,3,0,5,0.00
2013-10-23,60.5,47.0,36.0,47.0,40.6,33.0,89,79,59,30.15,30.07,3,0,4,0.01
2013-10-24,59.6,48.4,37.3,47.0,41.0,34.0,89,77,56,30.12,30.06,3,0,5,0.01
2013-10-25,57.2,45.2,36.3,46.0,39.6,33.0,89,81,65,30.25,30.11,3,0,4,0.00
2013-10-26,53.9,43.0,35.3,44.0,38.1,32.0,89,83,68,30.31,30.05,3,1,5,0.01
2013-10-27,47.4,42.0,31.5,42.0,35.7,23.0,89,79,52,30.05,29.76,22,4,27,0.13
2013-10-28,40.6,33.7,29.4,28.0,21.5,16.0,88,63,44,29.97,29.90,20,9,27,0.00
2013-10-29,46.1,36.8,31.0,23.0,18.9,16.0,56,49,38,30.03,29.95,15,3,20,0.00
2013-10-30,45.1,37.9,31.3,27.0,23.1,19.0,63,56,44,30.10,30.01,9,2,13,0.00
2013-10-31,53.4,45.2,41.3,38.0,32.7,26.0,78,62,51,30.11,30.02,17,6,23,0.00
2013-11-1,53.4,43.6,36.0,39.0,35.3,31.0,88,74,55,30.25,29.97,13,2,18,0.00
2013-11-2,47.8,43.3,33.6,42.0,34.6,30.0,86,72,54,29.96,29.54,31,11,44,0.33
2013-11-3,37.2,33.3,31.1,31.0,28.0,26.0,88,81,72,30.01,29.73,21,8,33,0.02
2013-11-4,35.0,31.7,27.2,28.0,25.0,20.0,88,77,58,30.21,30.00,8,2,10,0.00
2013-11-5,33.5,31.5,29.0,31.0,26.2,21.0,89,81,61,30.22,30.13,6,1,8,0.00
2013-11-6,35.2,33.2,31.4,32.0,30.3,29.0,89,89,87,30.40,30.22,3,1,6,0.04
2013-11-7,44.9,38.1,32.8,42.0,35.1,30.0,90,89,85,30.28,29.76,22,7,33,0.37
2013-11-8,44.4,39.6,36.5,36.0,33.9,32.0,88,80,64,30.16,29.91,17,9,27,0.00
2013-11-9,42.3,38.0,33.8,37.0,33.3,31.0,89,83,73,30.21,30.13,3,0,4,0.00
2013-11-10,41.2,38.3,36.3,37.0,35.2,33.0,90,88,85,30.26,30.12,3,0,4,0.00
2013-11-11,47.9,40.8,36.4,40.0,36.2,34.0,89,84,74,30.37,30.24,5,1,8,0.00
2013-11-12,45.1,40.4,36.7,40.0,36.2,33.0,89,85,78,30.36,30.21,5,1,7,0.01
2013-11-13,42.9,40.6,38.6,39.0,36.9,35.0,90,87,81,30.36,30.25,9,2,13,0.01
2013-11-14,42.8,39.4,33.7,38.0,35.5,31.0,89,85,81,30.24,29.91,9,2,11,0.00
2013-11-15,36.0,33.3,32.0,32.0,30.0,29.0,90,87,82,29.92,29.31,25,10,33,0.00
2013-11-16,37.3,33.9,32.1,31.0,28.8,25.0,89,81,68,29.66,29.20,29,11,47,0.06
2013-11-17,42.6,36.6,30.5,34.0,29.5,24.0,81,76,65,29.95,29.66,34,15,42,0.00
2013-11-18,46.5,43.2,40.5,37.0,32.5,28.0,84,67,50,29.89,29.61,35,20,45,0.01
2013-11-19,49.1,44.3,34.2,42.0,35.9,25.0,84,73,54,29.75,29.53,43,17,51,0.00
2013-11-20,33.8,26.5,20.6,24.0,5.5,-1.0,67,42,31,30.47,29.75,5,1,9,0.00
2013-11-21,32.4,23.5,15.4,14.0,8.8,3.0,73,54,41,30.76,30.47,8,1,10,0.00
2013-11-22,32.5,24.1,16.8,17.0,12.0,4.0,78,61,43,30.83,30.70,2,0,5,0.00
2013-11-23,35.9,26.7,20.2,19.0,16.5,14.0,79,66,49,30.69,30.39,5,1,6,0.00
2013-11-24,37.3,28.9,21.6,25.0,20.1,16.0,81,70,56,30.41,30.33,6,1,6,0.00
2013-11-25,37.1,30.8,26.0,27.0,23.9,20.0,81,76,66,30.49,30.41,3,1,5,0.00
2013-11-26,36.9,31.1,25.4,28.0,25.3,22.0,86,79,68,30.40,30.23,4,1,4,0.00
2013-11-27,38.5,29.9,23.6,30.0,25.5,20.0,89,84,72,30.24,30.14,3,0,4,0.00
2013-11-28,36.7,29.5,24.4,30.0,25.4,21.0,89,84,74,30.26,30.17,3,0,5,0.01
2013-11-29,33.1,29.1,23.6,30.0,26.1,21.0,89,88,84,30.33,30.24,5,1,6,0.00
2013-11-30,38.4,34.0,30.2,33.0,30.7,27.0,90,87,80,30.33,30.16,6,1,15,0.09
2013-12-1,45.0,41.3,37.0,40.0,37.0,33.0,88,84,77,30.16,29.60,33,14,41,0.14
2013-12-2,43.0,31.8,22.6,39.0,23.8,14.0,85,72,62,29.95,29.56,25,7,37,0.00
2013-12-3,22.9,20.1,17.2,14.0,2.3,-3.0,71,47,35,30.32,29.95,17,6,24,0.00
2013-12-4,21.5,16.9,13.2,5.0,0.2,-3.0,65,48,38,30.38,30.31,9,2,13,0.00
2013-12-5,14.9,12.6,11.0,9.0,6.7,3.0,82,77,63,30.36,30.33,8,1,13,0.00
2013-12-6,12.8,8.3,2.3,3.0,-4.2,-12.0,71,57,46,30.37,30.30,20,8,28,0.00
2013-12-7,11.0,4.7,0.6,-9.0,-12.3,-14.0,59,46,35,30.48,30.29,23,5,25,0.00
2013-12-8,12.4,6.7,2.2,0.0,-4.0,-10.0,78,62,49,30.64,30.46,9,1,13,0.00
2013-12-9,22.4,14.9,8.7,14.0,5.0,-2.0,70,65,59,30.63,30.43,15,2,19,0.00
2013-12-10,27.8,21.7,15.4,19.0,16.2,11.0,85,79,68,30.51,30.39,15,2,20,0.00
2013-12-11,31.9,26.5,21.4,23.0,20.2,17.0,84,77,67,30.50,30.37,4,1,6,0.00
2013-12-12,33.9,29.0,24.2,29.0,22.8,19.0,85,78,61,30.36,30.14,8,2,16,0.00
2013-12-13,34.2,30.9,29.1,32.0,27.5,26.0,90,87,82,30.45,30.17,9,2,13,0.01
2013-12-14,43.2,39.3,34.4,35.0,32.7,30.0,90,78,62,30.45,30.28,18,5,27,0.01
2013-12-15,45.9,41.7,39.0,36.0,33.0,29.0,80,71,64,30.28,30.17,22,11,33,0.00
2013-12-16,41.5,37.6,33.0,34.0,32.1,30.0,88,80,75,30.37,30.26,19,5,27,0.00
2013-12-17,46.2,38.1,30.5,31.0,27.5,26.0,88,67,46,30.30,29.95,15,3,25,0.00
2013-12-18,38.9,35.0,29.1,31.0,28.7,26.0,87,78,71,29.95,29.83,15,5,21,0.00
2013-12-19,28.5,23.7,19.8,19.0,14.8,11.0,77,69,62,30.23,30.12,7,1,9,0.00
2013-12-20,25.8,23.7,19.7,21.0,15.6,7.0,87,72,53,30.15,29.68,12,2,18,0.00
2013-12-21,29.3,25.6,22.4,27.0,22.4,19.0,89,87,86,30.14,29.82,3,0,5,0.00
2013-12-22,35.3,30.2,27.5,33.0,27.4,25.0,90,89,88,30.32,30.14,4,0,7,0.04
2013-12-23,40.6,37.1,32.4,38.0,33.7,27.0,90,87,76,30.31,29.99,28,10,42,0.27
2013-12-24,36.6,32.8,28.4,28.0,25.8,23.0,81,75,69,30.55,30.32,9,3,16,0.00
2013-12-25,33.2,28.1,20.5,28.0,23.3,17.0,89,82,71,30.55,30.44,4,1,8,0.00
2013-12-26,37.3,32.0,27.3,30.0,25.3,22.0,84,77,62,30.46,30.32,4,1,7,0.00
2013-12-27,41.1,31.8,26.8,29.0,25.6,23.0,88,79,52,30.32,30.05,30,3,41,0.00
2013-12-28,30.1,26.1,23.7,27.0,23.1,20.0,89,88,87,30.51,30.22,5,1,7,0.00
2013-12-29,33.7,29.1,23.7,28.0,24.8,21.0,89,84,75,30.50,30.27,7,1,14,0.00
2013-12-30,35.9,30.5,26.3,31.0,26.7,23.0,89,85,80,30.33,30.13,10,1,12,0.01
2013-12-31,38.7,32.5,28.9,31.0,28.6,26.0,89,85,71,30.36,30.10,8,1,16,0.02
2014-1-1,31.5,29.2,27.3,29.0,26.5,25.0,90,89,89,30.48,30.36,3,1,5,0.00
2014-1-2,47.4,37.0,28.4,32.0,29.3,26.0,90,76,48,30.38,29.72,31,7,50,0.01